Regional Weather Roundup
Issued by NWS

Home | Current Version | Previous Version | Graphics & Text | Print | Product List | Glossary On
Versions: 1 2 3 4 5 6 7 8 9 10 11 12 13 14 15 16 17 18 19 20 21 22 23 24 25 26 27 28 29 30 31 32 33 34 35 36 37 38 39 40 41 42 43 44 45 46 47 48 49 50
000
ASUS43 KFSD 242202
RWRSD

WEATHER ROUNDUP FOR SOUTH DAKOTA
NATIONAL WEATHER SERVICE SIOUX FALLS SD
500 PM CDT WED MAY 24 2017

NOTE: "FAIR" INDICATES FEW OR NO CLOUDS BELOW 12,000 FEET WITH NO
SIGNIFICANT WEATHER AND/OR OBSTRUCTIONS TO VISIBILITY.


SDZ001>005-009-010-012>017-242300-
NORTHWEST AND NORTH CENTRAL SOUTH DAKOTA

CITY           SKY/WX    TMP DP  RH WIND       PRES   REMARKS
BUFFALO          N/A     76  43  30 SE32G41   29.28F
FAITH            N/A     70  40  33 S28G38    29.44F
MOBRIDGE       SUNNY     69  39  33 S25       29.50F
$$

SDZ012>016-024>037-041>051-057-063-072>074-242300-
SOUTHWEST AND SOUTH CENTRAL SOUTH DAKOTA

CITY           SKY/WX    TMP DP  RH WIND       PRES   REMARKS
RAPID CTY ARPT SUNNY     77  47  34 S23G31    29.43F
PIERRE         SUNNY     69  40  34 S18       29.53F
CUSTER         SUNNY     72  40  31 S9G16     29.54F
ELLSWORTH AFB  SUNNY     77  47  33 S22G29    29.41F
PHILIP         SUNNY     75  40  28 SE25      29.47F
PINE RIDGE     SUNNY     77  47  34 S18       29.48F
SPEARFISH      LGT RAIN  77  52  41 E9        29.40F
WINNER         FAIR      69  45  41 S17G25    29.59F
$$

SDZ004>011-016>023-039-040-242300-
NORTHEAST SOUTH DAKOTA

CITY           SKY/WX    TMP DP  RH WIND       PRES   REMARKS
ABERDEEN       PTSUNNY   68  39  34 S18G26    29.61F
WATERTOWN      CLOUDY    59  45  59 S15       29.66F
BROOKINGS      CLOUDY    59  45  59 E10       29.68F
SISSETON         N/A     64  44  48 SE12      29.66F
$$

SDZ017-020-022-023-036>040-048>070-242300-
SOUTHEAST SOUTH DAKOTA

CITY           SKY/WX    TMP DP  RH WIND       PRES   REMARKS
SIOUX FALLS    CLOUDY    63  47  55 SE8       29.68F
HURON          MOSUNNY   66  45  46 S15G22    29.63F
MITCHELL       PTSUNNY   65  44  46 SE14      29.65F
YANKTON        MOSUNNY   63  43  48 VRB3      29.68F
$$

ABBREVIATIONS USED IN REMARKS
   TC - TEMPERATURE IN CELSIUS
  WCI - WIND CHILL INDEX
   HX - HEAT INDEX
  VSB - VISIBILITY





USA.gov is the U.S. government's official web portal to all federal, state and local government web resources and services.